{"data":{"norad_id":39455,"epoch":"2026-09-20T03:55:45.880608Z","epoch_age_seconds":62633,"freshness":"FRESH","line1":"1 39455U 13068A   26263.16372547  .00000060  00000+0  29449-4 0  9995","line2":"2 39455  98.0559 129.3488 0014811  19.4178 340.7575 14.43715646675330","mean_motion":14.43715646,"eccentricity":0.0014811,"inclination_deg":98.0559,"raan_deg":129.3488,"arg_perigee_deg":19.4178,"mean_anomaly_deg":340.7575,"bstar":2.9449e-5,"rev_number":67533,"period_min":99.742633114056,"perigee_km":735.696379267,"apogee_km":756.80023342145,"semimajor_km":7124.3853063442,"source":"CELESTRAK","updated_at":"2026-09-20T09:00:13.958919Z"}}